Location: *
(45.1333°S, 169.6333°W)
Time: 18:26:33
(UTC+00:00)

SKYMED 2 - Pass Details

Date: 26 May 2022
Orbit: 621 x 623 km, 97.9° (Epoch: 06 July)

Event Time Altitude Azimuth Distance (km) Brightness Sun altitude
Rises 04:42:30 0° 6° (N) 2,899 7.2 -9.3°
Reaches altitude 10° 04:44:42 10° 2° (N) 2,001 6.4 -9.6°
Maximum altitude 04:49:01 61° 281° (W) 722 4.2 -10.3°
Drops below altitude 10° 04:53:24 10° 200° (SSW) 2,030 6.2 -11.1°
Sets 04:55:39 0° 196° (SSW) 2,945 7.0 -11.4°
